Weather History for Bradford, PA

Change the Weather History Date:

Saturday, September 22, 2012

  Actual Average Record
Temperature  
Mean Temperature 55 °F 54 °F  
Max Temperature 64 °F 66 °F 82 °F (1980)
Min Temperature 45 °F 43 °F 26 °F (1963)
Degree Days  
Heating Degree Days 10 7  
Month to date heating degree days 82  
Since 1 July heating degree days 235  
Cooling Degree Days 0 0  
Month to date cooling degree days 13  
Year to date cooling degree days 190  
Growing Degree Days 5 (Base 50)    
Moisture  
Dew Point 50 °F    
Average Humidity 80    
Maximum Humidity 90    
Minimum Humidity 55    
Precipitation  
Precipitation 0.25 in 0.14 in 2.24 in (1992)
Month to date precipitation 2.88  
Year to date precipitation 32.83  
Sea Level Pressure  
Sea Level Pressure 29.82 in    
Wind  
Wind Speed 9 mph (WSW)    
Max Wind Speed 16 mph    
Max Gust Speed 29 mph    
Visibility 9 miles    
Events Rain    
T = Trace of Precipitation, MM = Missing Value Source: NWS Daily Summary

Daily Weather History Graph

Daily Weather History Graph

Search for Another Location

Airport:

Trip Planner

Search our weather history database for the weather conditions in past years. The results will help you decide how hot, cold, wet, or windy it might be!

Date:

Astronomy

Sep. 22, 2012 Rise Set
Actual Time 7:02 AM EDT 7:10 PM EDT
Civil Twilight 6:34 AM EDT 7:38 PM EDT
Nautical Twilight 6:02 AM EDT 8:11 PM EDT
Astronomical Twilight 5:28 AM EDT 8:44 PM EDT
Moon 2:24 PM EDT (9/22) No Moon Set
Length of Visible Light 13h 04m
Length of Day
12h 08m
Waxing Crescent, 48% of the Moon is Illuminated
Sep 22
Waxing Crescent
Sep 22
First Quarter
Sep 29
Full
Oct 8
Last Quarter
Oct 15
New

Hourly Weather History & Observations

Time (EDT) Temp. Windchill Dew Point Humidity Pressure Visibility Wind Dir Wind Speed Gust Speed Precip Events Conditions
12:53 AM 54.0 °F - 51.1 °F 90% 29.81 in 10.0 mi SE 4.6 mph - N/A   Overcast
1:19 AM 55.0 °F - 51.1 °F 86% 29.80 in 10.0 mi SE 5.8 mph - N/A   Scattered Clouds
1:53 AM 57.9 °F - 54.0 °F 87% 29.75 in 10.0 mi SE 11.5 mph 19.6 mph N/A   Scattered Clouds
2:06 AM 59.0 °F - 54.0 °F 83% 29.76 in 9.0 mi SE 16.1 mph 21.9 mph N/A   Mostly Cloudy
2:29 AM 60.1 °F - 55.9 °F 86% 29.76 in 9.0 mi SSE 10.4 mph 23.0 mph N/A   Overcast
2:43 AM 61.0 °F - 55.9 °F 83% 29.76 in 10.0 mi SSE 16.1 mph 28.8 mph N/A   Overcast
2:51 AM 60.8 °F - 55.4 °F 82% 29.76 in 9.0 mi SSE 10.4 mph 24.2 mph 0.00 in Rain Light Rain
2:53 AM 61.0 °F - 55.9 °F 83% 29.72 in 9.0 mi SSE 10.4 mph 19.6 mph 0.00 in Rain Light Rain
3:53 AM 63.0 °F - 55.9 °F 78% 29.69 in 10.0 mi SSE 10.4 mph 21.9 mph 0.00 in   Mostly Cloudy
4:53 AM 64.0 °F - 54.0 °F 70% 29.68 in 10.0 mi South 9.2 mph - 0.00 in Rain Light Rain
5:53 AM 64.0 °F - 53.1 °F 67% 29.70 in 10.0 mi Variable 5.8 mph 20.7 mph 0.00 in   Overcast
6:53 AM 57.9 °F - 53.1 °F 84% 29.75 in 6.0 mi SW 10.4 mph 23.0 mph 0.04 in Rain Light Rain
7:16 AM 57.0 °F - 53.1 °F 87% 29.78 in 10.0 mi SW 6.9 mph - 0.01 in Rain Light Rain
7:30 AM 57.0 °F - 53.1 °F 87% 29.78 in 10.0 mi SW 6.9 mph - 0.01 in   Overcast
7:53 AM 57.0 °F - 53.1 °F 87% 29.75 in 10.0 mi Variable 5.8 mph - 0.01 in Rain Light Rain
8:53 AM 57.0 °F - 53.1 °F 87% 29.78 in 10.0 mi Variable 5.8 mph - 0.00 in   Overcast
9:22 AM 57.0 °F - 53.1 °F 87% 29.80 in 10.0 mi SW 6.9 mph - N/A   Overcast
9:53 AM 57.0 °F - 53.1 °F 87% 29.79 in 3.0 mi SW 6.9 mph - 0.02 in Rain Light Rain
10:53 AM 57.9 °F - 53.1 °F 84% 29.79 in 10.0 mi WSW 6.9 mph - 0.00 in Rain Light Rain
11:15 AM 57.9 °F - 53.1 °F 84% 29.81 in 10.0 mi Variable 4.6 mph - 0.00 in   Overcast
11:41 AM 59.0 °F - 53.1 °F 81% 29.81 in 10.0 mi WSW 8.1 mph - 0.00 in   Overcast
11:49 AM 59.0 °F - 53.6 °F 82% 29.81 in 10.0 mi Variable 6.9 mph - 0.00 in   Overcast
11:53 AM 59.0 °F - 53.1 °F 81% 29.79 in 10.0 mi WSW 8.1 mph - 0.00 in   Mostly Cloudy
12:53 PM 61.0 °F - 51.1 °F 70% 29.80 in 10.0 mi West 13.8 mph 23.0 mph 0.00 in Rain Light Rain
1:01 PM 60.1 °F - 51.1 °F 72% 29.82 in 10.0 mi West 8.1 mph 20.7 mph 0.00 in Rain Light Rain
1:28 PM 60.1 °F - 50.0 °F 69% 29.82 in 10.0 mi West 12.7 mph 25.3 mph 0.00 in   Overcast
1:36 PM 60.1 °F - 50.0 °F 69% 29.81 in 10.0 mi West 13.8 mph 24.2 mph 0.00 in   Mostly Cloudy
1:53 PM 63.0 °F - 51.1 °F 65% 29.79 in 10.0 mi West 16.1 mph 24.2 mph 0.00 in   Mostly Cloudy
2:53 PM 60.1 °F - 48.9 °F 67% 29.80 in 10.0 mi West 10.4 mph 21.9 mph N/A   Mostly Cloudy
3:53 PM 62.6 °F - 46.4 °F 55% 29.83 in 10.0 mi SW 10.4 mph 18.4 mph N/A   Clear
4:53 PM 62.1 °F - 46.9 °F 58% 29.80 in 10.0 mi WNW 11.5 mph - N/A   Scattered Clouds
5:53 PM 57.0 °F - 45.0 °F 64% 29.83 in 10.0 mi WNW 15.0 mph 21.9 mph N/A   Overcast
6:53 PM 52.0 °F - 44.1 °F 74% 29.86 in 10.0 mi West 3.5 mph - N/A   Clear
7:53 PM 51.1 °F - 45.0 °F 80% 29.86 in 10.0 mi NNW 3.5 mph - N/A   Overcast
8:29 PM 48.9 °F - 45.0 °F 86% 29.91 in 2.5 mi WNW 15.0 mph 25.3 mph 0.08 in Rain Heavy Rain
8:34 PM 48.9 °F - 45.0 °F 86% 29.92 in 3.0 mi WNW 11.5 mph - 0.09 in Rain Rain
8:42 PM 48.9 °F - 45.0 °F 86% 29.92 in 6.0 mi WNW 11.5 mph - 0.11 in Rain Rain
8:53 PM 48.9 °F - 45.0 °F 86% 29.93 in 8.0 mi West 10.4 mph - 0.11 in Rain Light Rain
9:09 PM 48.9 °F - 45.0 °F 86% 29.94 in 6.0 mi West 11.5 mph - 0.02 in Rain Light Rain
9:30 PM 46.9 °F - 43.0 °F 86% 29.96 in 6.0 mi WNW 12.7 mph 24.2 mph 0.05 in Rain Rain
9:35 PM 46.9 °F - 43.0 °F 86% 29.96 in 7.0 mi WNW 10.4 mph - 0.06 in Rain Light Rain
9:53 PM 46.9 °F - 42.1 °F 83% 29.94 in 10.0 mi NW 6.9 mph - 0.06 in Rain Light Rain
10:53 PM 46.0 °F 41.0 °F 42.1 °F 86% 29.97 in 10.0 mi WNW 10.4 mph - 0.01 in   Overcast
11:15 PM 46.0 °F 43.9 °F 42.1 °F 86% 29.99 in 10.0 mi West 4.6 mph - N/A   Overcast
11:53 PM 45.0 °F 43.5 °F 41.0 °F 86% 29.99 in 10.0 mi West 3.5 mph - N/A   Mostly Cloudy